When you browse on this site, cookies collect data to enhance your experience and personalize the content and advertising you see.
Visit our Privacy Policy to learn more. By continuing to use the site, you agree to this use of cookies and data.
  • în România
  • Lista ţărilor
  • Pe 7 zile
  • Temperatura apei
  • Hartă satelitară
  • Meteo pe hartă
  • Widget-uri
  • user-avatar
    Intrare

    Meteo pe oră la Les Pavillons-sous-Bois

    Astăzi, 20 Aprilie, Sâmbătă

    Timp Temperatura Precipitaţii Vânt Presiune Umiditate
    00:00 +16°C° 0 mm 2 m/s 763 mmHg 74%
    01:00 +16°C° 0.2 mm 2 m/s 763 mmHg 75%
    02:00 +15°C° 0.2 mm 2 m/s 763 mmHg 76%
    03:00 +14°C° 0.2 mm 3 m/s 763 mmHg 77%
    04:00 +15°C° 0.1 mm 2 m/s 763 mmHg 77%
    05:00 +15°C° 0.1 mm 2 m/s 763 mmHg 78%
    06:00 +15°C° 0 mm 2 m/s 764 mmHg 76%
    07:00 +17°C° 0 mm 2 m/s 764 mmHg 70%
    08:00 +18°C° 0 mm 2 m/s 764 mmHg 65%
    09:00 +20°C° 0 mm 3 m/s 764 mmHg 59%
    10:00 +22°C° 0 mm 3 m/s 763 mmHg 51%
    11:00 +23°C° 0 mm 4 m/s 763 mmHg 42%
    12:00 +26°C° 0 mm 4 m/s 763 mmHg 34%
    13:00 +26°C° 0 mm 4 m/s 763 mmHg 34%
    14:00 +26°C° 0 mm 4 m/s 763 mmHg 34%
    15:00 +26°C° 0 mm 4 m/s 762 mmHg 35%
    16:00 +25°C° 0 mm 4 m/s 762 mmHg 39%
    17:00 +24°C° 0 mm 3 m/s 762 mmHg 44%
    18:00 +22°C° 0 mm 3 m/s 762 mmHg 49%
    19:00 +21°C° 0 mm 3 m/s 762 mmHg 54%
    20:00 +19°C° 0 mm 3 m/s 762 mmHg 60%
    21:00 +18°C° 0 mm 3 m/s 762 mmHg 65%
    22:00 +17°C° 0 mm 2 m/s 762 mmHg 67%
    23:00 +17°C° 0 mm 2 m/s 762 mmHg 69%

    Mâine, 21 Aprilie, Duminică

    Timp Temperatura Precipitaţii Vânt Presiune Umiditate
    00:00 +16°C° 0 mm 2 m/s 761 mmHg 71%
    01:00 +15°C° 0 mm 2 m/s 761 mmHg 71%
    02:00 +15°C° 0 mm 2 m/s 761 mmHg 71%
    03:00 +14°C° 0 mm 2 m/s 760 mmHg 70%
    04:00 +14°C° 0 mm 2 m/s 760 mmHg 69%
    05:00 +14°C° 0 mm 2 m/s 760 mmHg 68%
    06:00 +14°C° 0 mm 2 m/s 759 mmHg 67%
    07:00 +16°C° 0 mm 2 m/s 759 mmHg 61%
    08:00 +18°C° 0 mm 2 m/s 759 mmHg 55%
    09:00 +20°C° 0 mm 2 m/s 759 mmHg 49%
    10:00 +21°C° 0 mm 3 m/s 758 mmHg 44%
    11:00 +22°C° 0 mm 3 m/s 758 mmHg 39%
    12:00 +25°C° 0 mm 4 m/s 757 mmHg 34%
    13:00 +25°C° 0 mm 4 m/s 757 mmHg 34%
    14:00 +25°C° 0 mm 4 m/s 756 mmHg 34%
    15:00 +25°C° 0 mm 4 m/s 756 mmHg 35%
    16:00 +24°C° 0 mm 3 m/s 755 mmHg 39%
    17:00 +22°C° 0 mm 3 m/s 755 mmHg 43%
    18:00 +21°C° 0 mm 3 m/s 755 mmHg 48%
    19:00 +20°C° 0 mm 3 m/s 754 mmHg 51%
    20:00 +19°C° 0 mm 2 m/s 754 mmHg 54%
    21:00 +17°C° 0 mm 2 m/s 754 mmHg 58%
    22:00 +17°C° 0 mm 2 m/s 754 mmHg 59%
    23:00 +16°C° 0 mm 2 m/s 754 mmHg 60%

    Poimâine, 22 Aprilie, Luni

    Timp Temperatura Precipitaţii Vânt Presiune Umiditate
    00:00 +16°C° 0 mm 2 m/s 753 mmHg 61%
    01:00 +15°C° 0 mm 2 m/s 753 mmHg 63%
    02:00 +15°C° 0 mm 2 m/s 752 mmHg 64%
    03:00 +14°C° 0 mm 2 m/s 751 mmHg 66%
    04:00 +14°C° 0 mm 2 m/s 751 mmHg 68%
    05:00 +14°C° 0 mm 2 m/s 751 mmHg 70%
    06:00 +13°C° 0 mm 2 m/s 750 mmHg 73%
    07:00 +15°C° 0 mm 2 m/s 750 mmHg 69%
    08:00 +17°C° 0 mm 2 m/s 750 mmHg 65%
    09:00 +20°C° 0 mm 1 m/s 749 mmHg 62%
    10:00 +20°C° 0 mm 2 m/s 749 mmHg 56%
    11:00 +23°C° 0 mm 2 m/s 748 mmHg 51%
    12:00 +24°C° 0 mm 2 m/s 748 mmHg 46%
    13:00 +25°C° 0 mm 2 m/s 747 mmHg 44%
    14:00 +25°C° 0 mm 2 m/s 747 mmHg 42%
    15:00 +25°C° 0 mm 2 m/s 746 mmHg 40%
    16:00 +25°C° 0 mm 2 m/s 746 mmHg 45%
    17:00 +24°C° 0 mm 2 m/s 745 mmHg 49%
    18:00 +23°C° 0 mm 2 m/s 745 mmHg 54%
    19:00 +21°C° 0 mm 2 m/s 745 mmHg 59%
    20:00 +19°C° 0 mm 2 m/s 745 mmHg 64%
    21:00 +18°C° 0 mm 2 m/s 745 mmHg 69%
    22:00 +17°C° 0 mm 2 m/s 744 mmHg 71%
    23:00 +17°C° 0 mm 2 m/s 744 mmHg 74%

    23 Aprilie, Marţi

    Timp Temperatura Precipitaţii Vânt Presiune Umiditate
    00:00 +16°C° 0 mm 1 m/s 744 mmHg 77%
    01:00 +15°C° 0 mm 1 m/s 743 mmHg 78%
    02:00 +15°C° 0 mm 1 m/s 743 mmHg 80%
    03:00 +14°C° 0 mm 1 m/s 743 mmHg 81%
    04:00 +14°C° 0 mm 1 m/s 743 mmHg 79%
    05:00 +14°C° 0 mm 1 m/s 743 mmHg 78%
    06:00 +14°C° 0 mm 2 m/s 743 mmHg 76%
    07:00 +15°C° 0 mm 2 m/s 743 mmHg 70%
    08:00 +17°C° 0 mm 2 m/s 743 mmHg 64%
    09:00 +18°C° 0 mm 2 m/s 743 mmHg 58%
    10:00 +20°C° 0 mm 2 m/s 742 mmHg 55%
    11:00 +21°C° 0 mm 2 m/s 742 mmHg 52%
    12:00 +23°C° 0 mm 2 m/s 742 mmHg 49%
    13:00 +24°C° 0 mm 1 m/s 742 mmHg 48%
    14:00 +24°C° 0 mm 1 m/s 741 mmHg 47%
    15:00 +25°C° 0 mm 1 m/s 741 mmHg 45%
    16:00 +24°C° 0 mm 1 m/s 741 mmHg 50%
    17:00 +23°C° 0 mm 1 m/s 741 mmHg 54%
    18:00 +22°C° 0 mm 1 m/s 740 mmHg 58%
    19:00 +21°C° 0.3 mm 1 m/s 741 mmHg 62%
    20:00 +20°C° 0.3 mm 1 m/s 741 mmHg 67%
    21:00 +20°C° 0.3 mm 1 m/s 741 mmHg 71%
    22:00 +18°C° 0.9 mm 2 m/s 741 mmHg 72%
    23:00 +18°C° 0.9 mm 2 m/s 741 mmHg 73%

    24 Aprilie, Miercuri

    Timp Temperatura Precipitaţii Vânt Presiune Umiditate
    00:00 +18°C° 0.9 mm 2 m/s 741 mmHg 74%
    01:00 +17°C° 0 mm 2 m/s 741 mmHg 76%
    02:00 +16°C° 0 mm 3 m/s 741 mmHg 78%
    03:00 +16°C° 0 mm 3 m/s 741 mmHg 81%
    04:00 +15°C° 0 mm 4 m/s 742 mmHg 82%
    05:00 +15°C° 0 mm 4 m/s 742 mmHg 83%
    06:00 +14°C° 0 mm 5 m/s 742 mmHg 84%
    07:00 +14°C° 0.5 mm 5 m/s 743 mmHg 82%
    08:00 +14°C° 0.5 mm 5 m/s 744 mmHg 80%
    09:00 +14°C° 0.5 mm 5 m/s 744 mmHg 78%
    10:00 +15°C° 0.3 mm 5 m/s 744 mmHg 73%
    11:00 +15°C° 0.3 mm 5 m/s 745 mmHg 67%
    12:00 +16°C° 0.3 mm 5 m/s 745 mmHg 62%
    13:00 +15°C° 0.2 mm 4 m/s 745 mmHg 63%
    14:00 +15°C° 0.2 mm 4 m/s 745 mmHg 63%
    15:00 +14°C° 0.2 mm 3 m/s 745 mmHg 64%
    16:00 +14°C° 0 mm 4 m/s 745 mmHg 61%
    17:00 +14°C° 0 mm 5 m/s 746 mmHg 59%
    18:00 +14°C° 0 mm 5 m/s 746 mmHg 57%
    19:00 +14°C° 0 mm 5 m/s 746 mmHg 60%
    20:00 +13°C° 0 mm 5 m/s 746 mmHg 63%
    21:00 +12°C° 0 mm 4 m/s 746 mmHg 66%
    22:00 +12°C° 0 mm 5 m/s 746 mmHg 67%
    23:00 +12°C° 0 mm 5 m/s 746 mmHg 67%

    25 Aprilie, Joi

    Timp Temperatura Precipitaţii Vânt Presiune Umiditate
    00:00 +11°C° 0 mm 6 m/s 746 mmHg 68%
    01:00 +11°C° 0.2 mm 6 m/s 746 mmHg 71%
    02:00 +11°C° 0.2 mm 6 m/s 746 mmHg 74%
    03:00 +10°C° 0.2 mm 6 m/s 746 mmHg 77%
    04:00 +10°C° 0.1 mm 6 m/s 747 mmHg 76%
    05:00 +10°C° 0.1 mm 5 m/s 747 mmHg 76%
    06:00 +9°C° 0.1 mm 5 m/s 747 mmHg 75%
    07:00 +10°C° 0.1 mm 5 m/s 747 mmHg 74%
    08:00 +11°C° 0.1 mm 6 m/s 748 mmHg 73%
    09:00 +11°C° 0.1 mm 6 m/s 748 mmHg 71%
    10:00 +13°C° 0.8 mm 6 m/s 748 mmHg 67%
    11:00 +14°C° 0.8 mm 6 m/s 748 mmHg 62%
    12:00 +15°C° 0.8 mm 6 m/s 748 mmHg 58%
    13:00 +14°C° 0.6 mm 6 m/s 749 mmHg 58%
    14:00 +14°C° 0.6 mm 6 m/s 749 mmHg 58%
    15:00 +14°C° 0.6 mm 6 m/s 749 mmHg 58%
    16:00 +13°C° 0.2 mm 6 m/s 749 mmHg 59%
    17:00 +13°C° 0.2 mm 5 m/s 750 mmHg 61%
    18:00 +12°C° 0.2 mm 4 m/s 750 mmHg 62%
    19:00 +12°C° 0 mm 4 m/s 750 mmHg 64%
    20:00 +11°C° 0 mm 4 m/s 751 mmHg 67%
    21:00 +9°C° 0 mm 5 m/s 752 mmHg 69%
    22:00 +9°C° 0.1 mm 5 m/s 752 mmHg 71%
    23:00 +9°C° 0.1 mm 5 m/s 752 mmHg 73%
    Arată mai mult